Location: Beaurecueil
(43.5122°N, 5.5450°E)
Time: 20:39:05
(UTC+00:00)

Cosmos 1092 Rocket - Pass Details

Date: 18 September 2020
Orbit: 954 x 995 km, 82.9° (Epoch: 27 October)

Event Time Altitude Azimuth Distance (km) Brightness Sun altitude
Rises 19:49:57 0° 353° (N) 3,644 7.5 -23.2°
Reaches altitude 10° 19:52:28 10° 355° (N) 2,696 6.7 -23.6°
Maximum altitude 19:58:38 77° 81° (E) 990 3.8 -24.6°
Enters shadow 20:00:15 51° 154° (SSE) 1,191 4.1 -24.9°
